FW0958 Weather Reports


Display with metric or nautical units.
time (UTC)temp
F
wind
direction
speed
MPH
gust
MPH
rain 1hr
in
rain 24hr
in
rain mn
in
humidity
%
barometer
mb
20260903182546 85 284 3.0 9.0 0.00 0.00 0.00 47 1013.9
20260903182054 84 284 2.0 8.0 0.00 0.00 0.00 43 1013.8
20260903182049 84 12 2.0 8.0 0.00 0.00 0.00 46 1014.0
20260903181053 82 160 2.0 5.0 0.00 0.00 0.00 38 1014.0
20260903181047 83 263 2.0 5.0 0.00 0.00 0.00 38 1014.0
20260903180046 82 247 2.0 8.0 0.00 0.00 0.00 37 1014.2
20260903175551 82 284 1.0 9.0 0.00 0.00 0.00 43 1014.2
20260903175547 83 295 2.0 9.0 0.00 0.00 0.00 42 1014.1
20260903174546 81 328 0.0 0.0 0.00 0.00 0.00 51 1014.2
20260903174047 80 196 0.0 0.0 0.00 0.00 0.00 54 1014.2
20260903173551 79 304 1.0 4.0 0.00 0.00 0.00 57 1014.4
20260903173546 80 274 0.0 2.0 0.00 0.00 0.00 54 1014.2
20260903172545 79 301 1.0 4.0 0.00 0.00 0.00 57 1014.4
20260903172052 77 228 2.0 5.0 0.00 0.00 0.00 62 1014.4
20260903172046 77 229 1.0 5.0 0.00 0.00 0.00 63 1014.4
20260903171044 76 280 1.0 4.0 0.00 0.00 0.00 65 1014.4
20260903170544 75 265 0.0 3.0 0.00 0.00 0.00 67 1014.5
20260903170044 75 268 1.0 4.0 0.00 0.00 0.00 67 1014.5
20260903165543 74 268 1.0 4.0 0.00 0.00 0.00 68 1014.5
20260903165043 74 266 1.0 3.0 0.00 0.00 0.00 69 1014.5
20260903164543 73 207 0.0 3.0 0.00 0.00 0.00 69 1014.5
20260903164042 74 259 0.0 0.0 0.00 0.00 0.00 68 1014.5
20260903163542 73 257 0.0 0.0 0.00 0.00 0.00 71 1014.7
20260903163044 72 252 0.0 0.0 0.00 0.00 0.00 72 1014.6
20260903162547 71 162 0.0 0.0 0.00 0.00 0.00 74 1014.8
20260903162543 71 192 0.0 0.0 0.00 0.00 0.00 73 1014.6
20260903161545 69 162 0.0 0.0 0.00 0.00 0.00 74 1014.7
20260903161540 70 162 0.0 0.0 0.00 0.00 0.00 74 1014.7
20260903160541 69 162 0.0 0.0 0.00 0.00 0.00 74 1014.8
20260903160041 69 248 0.0 0.0 0.00 0.00 0.00 75 1014.7
20260903155541 68 248 0.0 0.0 0.00 0.00 0.00 76 1014.8
20260903155040 67 248 0.0 0.0 0.00 0.00 0.00 76 1014.9
20260903154540 67 328 0.0 0.0 0.00 0.00 0.00 77 1014.9
20260903154040 66 326 0.0 0.0 0.00 0.00 0.00 77 1014.8
20260903153540 65 326 0.0 0.0 0.00 0.00 0.00 79 1014.9
20260903153040 65 325 0.0 0.0 0.00 0.00 0.00 79 1014.8
20260903152539 64 325 0.0 0.0 0.00 0.00 0.00 79 1014.9
20260903152039 64 325 0.0 0.0 0.00 0.00 0.00 80 1014.9
20260903151539 63 325 0.0 0.0 0.00 0.00 0.00 79 1014.9
20260903151037 63 325 0.0 0.0 0.00 0.00 0.00 80 1015.0
20260903150544 62 326 0.0 0.0 0.00 0.00 0.00 81 1015.0
20260903150539 62 325 0.0 0.0 0.00 0.00 0.00 81 1014.9
20260903145538 62 325 0.0 0.0 0.00 0.00 0.00 82 1015.0
20260903145039 61 325 0.0 1.0 0.00 0.00 0.00 83 1014.8
20260903144538 61 325 0.0 2.0 0.00 0.00 0.00 84 1014.9
20260903144039 60 324 0.0 2.0 0.00 0.00 0.00 84 1015.0
20260903143536 60 324 0.0 0.0 0.00 0.00 0.00 86 1014.8
20260903143036 59 324 0.0 0.0 0.00 0.00 0.00 86 1014.8
20260903142538 59 324 0.0 0.0 0.00 0.00 0.00 87 1014.7
20260903142035 58 324 0.0 0.0 0.00 0.00 0.00 88 1014.6
20260903141537 58 324 0.0 0.0 0.00 0.00 0.00 88 1014.6
20260903141038 57 324 0.0 0.0 0.00 0.00 0.00 88 1014.6
20260903140538 57 324 0.0 0.0 0.00 0.00 0.00 89 1014.5
20260903140037 57 324 0.0 0.0 0.00 0.00 0.00 89 1014.5
20260903135536 56 324 0.0 0.0 0.00 0.00 0.00 89 1014.5
20260903135039 56 324 0.0 0.0 0.00 0.00 0.00 89 1014.2
20260903135035 56 324 0.0 0.0 0.00 0.00 0.00 89 1014.2
20260903134035 56 324 0.0 0.0 0.00 0.00 0.00 89 1014.2
20260903133535 56 324 0.0 0.0 0.00 0.00 0.00 89 1014.2
20260903133036 56 324 0.0 0.0 0.00 0.00 0.00 89 1014.2
20260903132535 56 324 0.0 0.0 0.00 0.00 0.00 89 1014.2
20260903132039 56 324 0.0 0.0 0.00 0.00 0.00 89 1014.2
20260903132035 56 324 0.0 0.0 0.00 0.00 0.00 89 1014.0
20260903131649 56 324 0.0 0.0 0.00 0.00 0.00 89 1014.2
20260903131034 56 324 0.0 0.0 0.00 0.00 0.00 89 1014.2
20260903130035 56 324 0.0 0.0 0.00 0.00 0.00 89 1014.2
20260903125534 56 324 0.0 0.0 0.00 0.00 0.00 89 1014.1
20260903125035 56 324 0.0 0.0 0.00 0.00 0.00 89 1014.2
20260903124533 56 324 0.0 0.0 0.00 0.00 0.00 89 1014.2
20260903124035 57 324 0.0 0.0 0.00 0.00 0.00 89 1014.1
20260903123534 56 324 0.0 0.0 0.00 0.00 0.00 89 1014.1
20260903123035 57 324 0.0 0.0 0.00 0.00 0.00 89 1014.1
20260903122535 57 324 0.0 0.0 0.00 0.00 0.00 89 1014.0
20260903122035 57 324 0.0 0.0 0.00 0.00 0.00 89 1014.0
20260903121535 57 324 0.0 0.0 0.00 0.00 0.00 89 1014.0
20260903121039 57 324 0.0 0.0 0.00 0.00 0.00 88 1013.9
20260903121034 57 324 0.0 0.0 0.00 0.00 0.00 88 1013.9
20260903120032 57 324 0.0 0.0 0.00 0.00 0.00 89 1014.0
20260903115531 57 324 0.0 0.0 0.00 0.00 0.00 89 1013.9
20260903115029 57 324 0.0 0.0 0.00 0.00 0.00 89 1014.0
20260903114535 57 324 0.0 0.0 0.00 0.00 0.00 89 1014.0
20260903114530 57 324 0.0 0.0 0.00 0.00 0.00 88 1014.0
20260903113535 58 324 0.0 0.0 0.00 0.00 0.00 88 1014.1
20260903113531 57 324 0.0 0.0 0.00 0.00 0.00 88 1014.1
20260903113148 58 324 0.0 0.0 0.00 0.00 0.00 88 1014.2
20260903112030 58 324 0.0 0.0 0.00 0.00 0.00 88 1014.1
20260903111529 58 324 0.0 0.0 0.00 0.00 0.00 88 1014.1
20260903111029 58 324 0.0 0.0 0.00 0.00 0.00 88 1014.2
20260903110527 58 324 0.0 0.0 0.00 0.00 0.00 88 1014.1
20260903110034 58 324 0.0 0.0 0.00 0.00 0.00 88 1014.4
20260903110029 58 324 0.0 0.0 0.00 0.00 0.00 88 1014.2
20260903105029 58 324 0.0 0.0 0.00 0.00 0.00 88 1014.2
20260903104528 58 324 0.0 0.0 0.00 0.00 0.00 88 1014.2
20260903104028 58 324 0.0 0.0 0.00 0.00 0.00 88 1014.4
20260903103528 58 324 0.0 0.0 0.00 0.00 0.00 88 1014.2
20260903103028 58 324 0.0 0.0 0.00 0.00 0.00 88 1014.2
20260903102527 58 324 0.0 0.0 0.00 0.00 0.00 87 1014.2
20260903102026 59 324 0.0 0.0 0.00 0.00 0.00 88 1014.2
20260903101525 59 324 0.0 0.0 0.00 0.00 0.00 88 1014.4
20260903101025 59 324 0.0 0.0 0.00 0.00 0.00 88 1014.5
20260903100525 59 324 0.0 0.0 0.00 0.00 0.00 88 1014.5
20260903100025 59 324 0.0 0.0 0.00 0.00 0.00 88 1014.4
20260903095532 59 324 0.0 0.0 0.00 0.00 0.00 88 1014.5
20260903095525 59 324 0.0 0.0 0.00 0.00 0.00 88 1014.5
20260903094524 59 324 0.0 0.0 0.00 0.00 0.00 88 1014.4
20260903094024 59 324 0.0 0.0 0.00 0.00 0.00 88 1014.4
20260903093521 59 324 0.0 0.0 0.00 0.00 0.00 88 1014.5
20260903093021 59 324 0.0 0.0 0.00 0.00 0.00 88 1014.5
20260903092518 59 324 0.0 0.0 0.00 0.00 0.00 88 1014.6
20260903092019 59 324 0.0 0.0 0.00 0.00 0.00 88 1014.7
20260903091520 60 324 0.0 0.0 0.00 0.00 0.00 88 1014.6
20260903091024 60 324 0.0 0.0 0.00 0.00 0.00 88 1014.7
20260903091020 60 324 0.0 0.0 0.00 0.00 0.00 88 1014.6
20260903090020 60 324 0.0 0.0 0.00 0.00 0.00 88 1014.7
20260903085520 60 324 0.0 2.0 0.00 0.00 0.00 88 1014.8
20260903085025 60 324 0.0 0.0 0.00 0.00 0.00 88 1014.9
20260903085021 60 324 0.0 2.0 0.00 0.00 0.00 88 1014.8
20260903084020 60 324 0.0 0.0 0.00 0.00 0.00 88 1015.0
20260903083516 60 324 0.0 0.0 0.00 0.00 0.00 88 1015.0
20260903083018 60 324 0.0 0.0 0.00 0.00 0.00 88 1015.0
20260903082517 61 324 0.0 0.0 0.00 0.00 0.00 88 1015.0
20260903082018 61 324 0.0 0.0 0.00 0.00 0.00 88 1015.1
20260903081517 61 324 0.0 0.0 0.00 0.00 0.00 88 1015.1
20260903081018 61 324 0.0 0.0 0.00 0.00 0.00 87 1015.1
20260903080518 61 324 0.0 0.0 0.00 0.00 0.00 87 1015.1
20260903080018 62 324 0.0 0.0 0.00 0.00 0.00 87 1015.1
20260903075516 62 324 0.0 0.0 0.00 0.00 0.00 87 1015.1
20260903075017 62 324 0.0 0.0 0.00 0.00 0.00 87 1015.2
20260903074516 62 324 0.0 0.0 0.00 0.00 0.00 87 1015.2
20260903074015 62 324 0.0 0.0 0.00 0.00 0.00 87 1015.3
20260903073515 62 324 0.0 0.0 0.00 0.00 0.00 87 1015.3
20260903073020 62 324 0.0 1.0 0.00 0.00 0.00 87 1015.3
20260903073015 62 324 0.0 0.0 0.00 0.00 0.00 87 1015.2
20260903072014 63 324 0.0 1.0 0.00 0.00 0.00 87 1015.1
20260903071515 63 324 0.0 0.0 0.00 0.00 0.00 87 1015.1
20260903071020 63 324 0.0 0.0 0.00 0.00 0.00 87 1015.0
20260903071017 62 324 0.0 0.0 0.00 0.00 0.00 87 1015.1
20260903070016 63 324 0.0 0.0 0.00 0.00 0.00 87 1015.1
20260903065514 63 324 0.0 0.0 0.00 0.00 0.00 86 1015.1
20260903065015 63 324 0.0 1.0 0.00 0.00 0.00 87 1015.1
20260903064519 64 324 0.0 0.0 0.00 0.00 0.00 87 1015.3
20260903064514 64 324 0.0 1.0 0.00 0.00 0.00 87 1015.2
20260903063515 64 324 0.0 0.0 0.00 0.00 0.00 87 1015.1
20260903063013 64 324 0.0 0.0 0.00 0.00 0.00 86 1015.2
20260903062514 64 324 0.0 0.0 0.00 0.00 0.00 86 1015.1
20260903062012 64 324 0.0 0.0 0.00 0.00 0.00 86 1015.3
20260903061513 64 324 0.0 0.0 0.00 0.00 0.00 86 1015.3
20260903061012 64 324 0.0 0.0 0.00 0.00 0.00 86 1015.2
20260903060512 64 324 0.0 0.0 0.00 0.00 0.00 85 1015.3
20260903060013 64 324 0.0 0.0 0.00 0.00 0.00 85 1015.4
20260903055517 65 324 0.0 0.0 0.00 0.00 0.00 85 1015.4
20260903055512 65 324 0.0 0.0 0.00 0.00 0.00 85 1015.3
20260903054513 65 324 0.0 0.0 0.00 0.00 0.00 85 1015.5
20260903054012 65 324 0.0 0.0 0.00 0.00 0.00 85 1015.6
20260903053510 65 324 0.0 0.0 0.00 0.00 0.00 85 1015.5
20260903053010 65 324 0.0 0.0 0.00 0.00 0.00 85 1015.5
20260903052511 65 324 0.0 0.0 0.00 0.00 0.00 85 1015.6
20260903052011 65 324 0.0 0.0 0.00 0.00 0.00 84 1015.5
20260903051511 65 324 0.0 0.0 0.00 0.00 0.00 84 1015.5
20260903051011 65 324 0.0 0.0 0.00 0.00 0.00 84 1015.4
20260903050511 66 324 0.0 0.0 0.00 0.00 0.00 84 1015.6
20260903050010 66 324 0.0 0.0 0.00 0.00 0.00 84 1015.5
20260903045511 66 324 0.0 0.0 0.00 0.00 0.00 84 1015.4
20260903045009 66 324 0.0 0.0 0.00 0.00 0.00 84 1015.5
20260903044516 66 324 0.0 0.0 0.00 0.00 0.00 83 1015.4
20260903044511 66 324 0.0 0.0 0.00 0.00 0.00 83 1015.5
20260903043508 67 324 0.0 1.0 0.00 0.00 0.00 83 1015.4
20260903043009 67 324 0.0 1.0 0.00 0.00 0.00 83 1015.4
20260903042515 67 324 0.0 0.0 0.00 0.00 0.00 83 1015.4
20260903042509 67 324 0.0 0.0 0.00 0.00 0.00 83 1015.3
20260903041508 67 324 0.0 1.0 0.00 0.00 0.00 83 1015.4
20260903041009 67 324 0.0 1.0 0.00 0.00 0.00 82 1015.3
20260903040509 67 324 0.0 2.0 0.00 0.00 0.00 82 1015.1
20260903040009 67 324 0.0 2.0 0.00 0.00 0.00 82 1015.3
20260903035507 67 324 0.0 2.0 0.00 0.00 0.00 82 1015.2
20260903035005 67 324 0.0 0.0 0.00 0.00 0.00 82 1014.9
20260903034506 68 324 0.0 2.0 0.00 0.00 0.00 81 1014.9
20260903034011 68 324 1.0 4.0 0.00 0.00 0.00 81 1014.9
20260903034006 68 324 1.0 4.0 0.00 0.00 0.00 81 1014.8
20260903033007 68 324 0.0 2.0 0.00 0.00 0.00 81 1014.8
20260903032503 68 324 0.0 0.0 0.00 0.00 0.00 80 1014.8
20260903032005 68 324 0.0 0.0 0.00 0.00 0.00 80 1014.8
20260903031511 69 324 1.0 4.0 0.00 0.00 0.00 79 1014.7
20260903031504 68 324 0.0 0.0 0.00 0.00 0.00 79 1014.8
20260903031005 69 324 0.0 0.0 0.00 0.00 0.00 79 1014.6
20260903030623 69 328 1.0 3.0 0.00 0.00 0.00 78 1014.6
20260903030005 69 324 1.0 4.0 0.00 0.00 0.00 79 1014.7
20260903025004 69 328 1.0 3.0 0.00 0.00 0.00 77 1014.5
20260903024503 69 327 1.0 4.0 0.00 0.00 0.00 77 1014.5
20260903024003 70 328 1.0 4.0 0.00 0.00 0.00 76 1014.4
20260903023504 70 336 1.0 4.0 0.00 0.00 0.00 75 1014.2
20260903023009 71 10 2.0 6.0 0.00 0.00 0.00 73 1014.4
20260903023005 70 335 1.0 4.0 0.00 0.00 0.00 74 1014.4
20260903022004 71 20 2.0 6.0 0.00 0.00 0.00 72 1014.5
20260903021504 71 334 2.0 5.0 0.00 0.00 0.00 71 1014.5
20260903021011 72 318 2.0 6.0 0.00 0.00 0.00 69 1014.2
20260903021005 71 353 2.0 5.0 0.00 0.00 0.00 70 1014.4
20260903020504 72 330 2.0 6.0 0.00 0.00 0.00 69 1014.5
20260903020123 72 328 2.0 5.0 0.00 0.00 0.00 67 1014.2
20260903015625 72 29 2.0 5.0 0.00 0.00 0.00 66 1014.1
20260903014503 73 325 3.0 7.0 0.00 0.00 0.00 65 1014.1
20260903014003 73 317 3.0 7.0 0.00 0.00 0.00 64 1014.1
20260903013505 74 338 3.0 8.0 0.00 0.00 0.00 62 1014.0
20260903013003 74 329 3.0 8.0 0.00 0.00 0.00 61 1014.1
20260903012503 74 0 3.0 8.0 0.00 0.00 0.00 59 1014.0
20260903012003 75 334 3.0 6.0 0.00 0.00 0.00 60 1013.9
20260903011502 75 328 3.0 7.0 0.00 0.00 0.00 60 1013.9
20260903011008 77 350 2.0 8.0 0.00 0.00 0.00 57 1014.0
20260903011002 76 286 2.0 8.0 0.00 0.00 0.00 58 1013.9
20260903010501 76 303 2.0 8.0 0.00 0.00 0.00 57 1014.0
20260903005501 77 338 3.0 8.0 0.00 0.00 0.00 58 1014.0
20260903005009 78 291 3.0 9.0 0.00 0.00 0.00 58 1014.0
20260903005003 78 286 3.0 8.0 0.00 0.00 0.00 58 1014.0
20260903004001 78 318 3.0 9.0 0.00 0.00 0.00 58 1014.0
20260903003503 79 280 3.0 8.0 0.00 0.00 0.00 57 1013.9
20260903003003 78 301 4.0 9.0 0.00 0.00 0.00 56 1013.9
20260903002501 78 334 3.0 9.0 0.00 0.00 0.00 57 1013.9
20260903002002 79 318 3.0 9.0 0.00 0.00 0.00 56 1013.9
20260903001458 79 297 3.0 9.0 0.00 0.00 0.00 56 1013.9
20260903001001 80 289 3.0 8.0 0.00 0.00 0.00 56 1014.0
20260903000459 80 324 3.0 7.0 0.00 0.00 0.00 56 1013.8
20260903000000 80 10 3.0 9.0 0.00 0.00 0.00 57 1013.9
20260902235500 80 357 4.0 9.0 0.00 0.00 0.00 58 1013.9
20260902234959 80 51 4.0 12.0 0.00 0.00 0.00 56 1014.0
20260902234459 80 330 4.0 12.0 0.00 0.00 0.00 58 1014.1
20260902234001 80 310 4.0 9.0 0.00 0.00 0.00 60 1014.1
20260902233459 80 24 4.0 10.0 0.00 0.00 0.00 59 1014.1
20260902233004 81 48 4.0 10.0 0.00 0.00 0.00 57 1014.0
20260902233000 80 307 4.0 10.0 0.00 0.00 0.00 58 1014.1
20260902232457 80 309 4.0 10.0 0.00 0.00 0.00 58 1014.1
20260902231457 82 297 4.0 9.0 0.00 0.00 0.00 57 1014.1
20260902230958 81 343 4.0 12.0 0.00 0.00 0.00 57 1014.4
20260902230458 81 295 4.0 12.0 0.00 0.00 0.00 57 1014.4
20260902225957 81 351 4.0 12.0 0.00 0.00 0.00 56 1014.5
20260902225457 81 287 5.0 12.0 0.00 0.00 0.00 57 1014.4
20260902225120 82 303 5.0 12.0 0.00 0.00 0.00 54 1014.5
20260902225003 82 0 5.0 12.0 0.00 0.00 0.00 55 1014.4
20260902224957 82 322 5.0 12.0 0.00 0.00 0.00 55 1014.4
20260902224117 82 317 5.0 12.0 0.00 0.00 0.00 53 1014.5
20260902222956 82 320 4.0 10.0 0.00 0.00 0.00 53 1014.6
20260902222456 84 308 4.0 12.0 0.00 0.00 0.00 53 1014.5
20260902221955 83 302 4.0 12.0 0.00 0.00 0.00 54 1014.5
20260902221457 83 297 5.0 13.0 0.00 0.00 0.00 54 1014.6
20260902220955 83 325 5.0 13.0 0.00 0.00 0.00 54 1014.6
20260902220456 84 317 5.0 15.0 0.00 0.00 0.00 52 1014.5
20260902215957 83 301 5.0 15.0 0.00 0.00 0.00 54 1014.5
20260902215455 83 355 5.0 11.0 0.00 0.00 0.00 55 1014.6
20260902214956 83 318 5.0 10.0 0.00 0.00 0.00 54 1014.6
20260902214455 83 314 5.0 11.0 0.00 0.00 0.00 55 1014.5
20260902213956 83 328 5.0 12.0 0.00 0.00 0.00 56 1014.6
20260902213456 83 323 5.0 12.0 0.00 0.00 0.00 55 1014.5
20260902212956 83 299 5.0 10.0 0.00 0.00 0.00 55 1014.5
20260902212454 84 330 4.0 10.0 0.00 0.00 0.00 53 1014.5
20260902211955 85 318 4.0 10.0 0.00 0.00 0.00 53 1014.5
20260902211455 85 301 5.0 12.0 0.00 0.00 0.00 53 1014.5
20260902210954 84 343 5.0 12.0 0.00 0.00 0.00 54 1014.6
20260902210457 84 272 5.0 13.0 0.00 0.00 0.00 55 1014.7
20260902205952 84 352 5.0 13.0 0.00 0.00 0.00 54 1014.7
20260902205454 84 1 5.0 12.0 0.00 0.00 0.00 54 1014.5
20260902204953 84 340 5.0 12.0 0.00 0.00 0.00 55 1014.7
20260902204454 85 294 5.0 13.0 0.00 0.00 0.00 56 1014.5
20260902203954 85 302 6.0 13.0 0.00 0.00 0.00 56 1014.5
20260902203453 85 314 6.0 13.0 0.00 0.00 0.00 55 1014.7
20260902202954 85 50 6.0 13.0 0.00 0.00 0.00 55 1014.7
20260902202452 85 345 6.0 14.0 0.00 0.00 0.00 55 1014.7
20260902201953 85 39 5.0 14.0 0.00 0.00 0.00 54 1014.7
20260902201452 87 18 4.0 11.0 0.00 0.00 0.00 52 1014.6
20260902200953 87 316 4.0 10.0 0.00 0.00 0.00 51 1014.7
20260902200453 87 329 4.0 9.0 0.00 0.00 0.00 51 1014.8
20260902195953 87 343 4.0 9.0 0.00 0.00 0.00 50 1014.9
20260902195453 87 24 4.0 10.0 0.00 0.00 0.00 50 1014.9
20260902194954 87 309 4.0 11.0 0.00 0.00 0.00 50 1014.9
20260902194458 87 266 5.0 12.0 0.00 0.00 0.00 51 1015.1
20260902194453 87 334 5.0 11.0 0.00 0.00 0.00 51 1015.0
20260902193454 86 289 5.0 12.0 0.00 0.00 0.00 53 1015.0
20260902192953 86 307 5.0 11.0 0.00 0.00 0.00 53 1015.1
20260902192453 86 322 5.0 11.0 0.00 0.00 0.00 54 1015.3
20260902191953 86 277 4.0 10.0 0.00 0.00 0.00 54 1015.2
20260902191454 86 297 2.0 10.0 0.00 0.00 0.00 54 1015.4
20260902190954 86 299 2.0 8.0 0.00 0.00 0.00 53 1015.4
20260902190453 85 120 3.0 8.0 0.00 0.00 0.00 52 1015.4
20260902185953 85 320 3.0 9.0 0.00 0.00 0.00 52 1015.3
20260902185452 85 327 2.0 9.0 0.00 0.00 0.00 53 1015.5
20260902184953 84 319 1.0 7.0 0.00 0.00 0.00 51 1015.5
20260902184454 85 305 0.0 0.0 0.00 0.00 0.00 53 1015.6
20260902183954 84 286 0.0 0.0 0.00 0.00 0.00 53 1015.6
20260902183458 84 297 0.0 0.0 0.00 0.00 0.00 54 1015.9
20260902183453 84 324 0.0 0.0 0.00 0.00 0.00 54 1015.8